sat.trackr.live / text

‹ back to catalog

STARLINK-36853

NORAD 68097 · 2026-042AE

PAYLOAD ACTIVE UNKNOWN

§ Identity

Operator
Country
US
Launch date
2026-03-04
Launch site
AFETR
Launch vehicle
Mass (kg)
RCS (m²)

Purposes: comms

External: N2YO · Heavens-Above · Gunter

§ Orbital elements

Epoch: 2026-09-19T07:02:57.674112Z

Period
93.85 min
Inclination
53.1599°
Eccentricity
0.0001286
Mean motion
15.34400047 rev/d
Perigee alt
461.8 km
Apogee alt
463.6 km
Semi-major
6,840.8 km
B*
1.4715e-4
RAAN
355.4217°
Arg perigee
93.1951°
Mean anomaly
266.9199°
Rev number
3,199

§ Raw data

STARLINK-368531 68097U 26042AE  26262.29372308  .00004598  00000+0  14715-3 0  99922 68097  53.1599 355.4217 0001286  93.1951 266.9199 15.34400047 31998

JSON: /api/v1/satellites/68097 · /tle

For live sub-satellite position, see the globe view (requires WebGL).

§ Visibility from observer

Set your observer location to see the next 7 days of passes ≥ 10°. The values pass through the URL so the page stays shareable.

No JS? Fill the form by hand. The geolocation button needs JavaScript.